User: anonymous   Login
Location: Hylvaty SDH
(49.9612°N, 16.4057°E)
Time: 08:52:53
(UTC+01:00)
Language:

A-11 Canister half - Orbit

View from above orbital plane
View from above orbital plane
View from above satellite
View from above satellite

Ground track
Ground track

The orbit data is extracted from the following two-line orbital elements,

1    53U 60009E   20299.79559455 -.00000142 +00000-0 -55816-3 0  9991
2    53 047.2751 217.0370 0098014 105.3133 255.8513 12.17246694684441
Epoch (UTC): 25 October 2020 19:05:39
Eccentricity: 0.0098014
inclination: 47.2751°
perigee height: 1526 km
apogee height: 1683 km
right ascension of ascending node: 217.0370°
argument of perigee: 105.3133°
revolutions per day: 12.17246694
mean anomaly at epoch: 255.8513°
orbit number at epoch: 68444

The dashed part of the orbit path shows where the satellite is in the earth's shadow,  

DLR